Regional Weather Roundup
Issued by NWS State College, PA

Home | Current Version | Previous Version | Graphics & Text | Print | Product List | Glossary On
Versions: 1 2 3 4 5 6 7 8 9 10 11 12 13 14 15 16 17 18 19 20 21 22 23 24 25 26 27 28 29 30 31 32 33 34 35 36 37 38 39 40 41 42 43 44 45 46 47 48 49 50
000
ASUS41 KCTP 272103
RWRCTP

REGIONAL WEATHER ROUNDUP
NATIONAL WEATHER SERVICE STATE COLLEGE PA
400 PM EST FRI FEB 27 2015

Note: "fair" indicates few or no clouds below 12,000 feet with no
significant weather and/or obstructions to visibility.

* = STATION THAT DOES NOT REPORT PRECIPITATION /E.G. RAIN...SNOW...ETC/
    THUNDER OR FOG.

PAZ002>004-007>009-013>016-020>023-029>032-272200-
WESTERN PENNSYLVANIA

CITY           SKY/WX    TMP DP  RH WIND       PRES   REMARKS
ERIE           SUNNY     11  -1  58 W12       30.58R WCI  -3
MEADVILLE        N/A     11  -5  48 W8        30.49R WCI  -1
FRANKLIN*      SUNNY     12  -4  48 W9        30.49R WCI   0
NEW CASTLE     FAIR      14  -4  44 W3        30.55R
BEAVER COUNTY  SUNNY     16  -2  45 N6        30.52R WCI   7
BUTLER*        SUNNY     16  -2  45 W9G17     30.53R WCI   4
PITTSBURGH INT MOSUNNY   17  -3  41 NW12      30.52R WCI   4
PITTSBURGH     MOSUNNY   17  -6  35 W9        30.49R WCI   6
INDIANA*       SUNNY     18  -2  41 W9        30.51R WCI   6
LATROBE        NOT AVBL
WASHINGTON CO* SUNNY     18  -2  41 NW6       30.53R WCI   9
$$

PAZ004>006-010>012-017>019-024>028-033>037-041-042-045-046-049>053-272200-
CENTRAL PENNSYLVANIA

CITY           SKY/WX    TMP DP  RH WIND       PRES   REMARKS
BRADFORD       SUNNY     11  -6  46 NW14      30.37R WCI  -5
DUBOIS         SUNNY     14  -3  47 W15       30.40R WCI  -1
CLEARFIELD     SUNNY     18  -2  41 W10       30.42R WCI   6
JOHNSTOWN      MOSUNNY   12  -1  56 W15       30.36S WCI  -4
ALTOONA        SUNNY     18   1  47 W12       30.43R WCI   5
STATE COLLEGE  MOSUNNY   19   1  45 W14       30.43R WCI   6
WILLIAMSPORT   SUNNY     29   1  30 W10       30.43R
SELINSGROVE    SUNNY     26   4  38 NW8       30.46R
FT INDIANTOWN  NOT AVBL
CAPITAL CITY   MOSUNNY   27   6  41 W10       30.47R
HARRISBURG     MOSUNNY   27  10  49 N9        30.47R
YORK           SUNNY     26   8  46 NW10      30.46R
$$

PAZ038>040-043-044-047-048-054-055-060>062-067>071-272200-
EASTERN PENNSYLVANIA

CITY           SKY/WX    TMP DP  RH WIND       PRES   REMARKS
SCRANTON       SUNNY     22   0  38 N10       30.40R WCI  11
MOUNT POCONO     N/A    N/A N/A N/A MISG      30.30R
ALLENTOWN      SUNNY     26   4  38 VRB7      30.43R
QUAKERTOWN*    CLEAR     25   5  42 NW9       30.43R
READING        SUNNY     25   3  38 NW12      30.45R WCI  14
LANCASTER      SUNNY     25   6  44 NW7       30.45R
COATESVILLE    CLEAR     27  10  50 NW10      30.43R
POTTSTOWN      SUNNY     27   5  39 W9        30.45R
BLUE BELL      SUNNY     30   7  37 NW8       30.43R
DOYLESTOWN     SUNNY     26   5  40 W9        30.42R
WILLOW GROVE   NOT AVBL
NORTH PHILA    SUNNY     30   5  34 N12       30.46R
PHILADELPHIA   MOSUNNY   30   8  39 NW9       30.46R
$$


USA.gov is the U.S. government's official web portal to all federal, state and local government web resources and services.